Weather History for Gainesville, GA

Change the Weather History Date:

Monday, May 12, 2014

  Actual Average Record
Temperature  
Mean Temperature 76 °F 67 °F  
Max Temperature 87 °F 77 °F 92 °F (1936)
Min Temperature 64 °F 57 °F 37 °F (1940)
Cooling Degree Days 11 3  
Month to date cooling degree days 64 31  
Year to date cooling degree days 98 70  
Growing Degree Days 25 (Base 50)    
Moisture  
Dew Point 63 °F    
Average Humidity 69    
Maximum Humidity 93    
Minimum Humidity 44    
Precipitation  
Precipitation 0.00 in 0.13 in 4.00 in (1942)
Month to date precipitation 0.30 1.53  
Year to date precipitation 15.30 20.41  
Sea Level Pressure  
Sea Level Pressure 30.14 in    
Wind  
Wind Speed 3 mph (South)    
Max Wind Speed 10 mph    
Max Gust Speed 15 mph    
Visibility 10 miles    
Events      
T = Trace of Precipitation, MM = Missing Value Source: NWS Daily Summary

Daily Weather History Graph

Daily Weather History Graph

Search for Another Location

Airport:

Trip Planner

Search our weather history database for the weather conditions in past years. The results will help you decide how hot, cold, wet, or windy it might be!

Date:

Astronomy

May. 12, 2014 Rise Set
Actual Time 6:35 AM EDT 8:28 PM EDT
Civil Twilight 6:08 AM EDT 8:55 PM EDT
Nautical Twilight 5:34 AM EDT 9:29 PM EDT
Astronomical Twilight 4:59 AM EDT 10:04 PM EDT
Moon 6:30 PM EDT (5/12) 5:07 AM EDT (5/12)
Length of Visible Light 14h 47m
Length of Day
13h 52m
Waxing Gibbous, 95% of the Moon is Illuminated
May 12
Waxing Gibbous
May 14
Full
May 21
Last Quarter
May 28
New
Jun 5
First Quarter

Hourly Weather History & Observations

Time (EDT) Temp. Heat Index Dew Point Humidity Pressure Visibility Wind Dir Wind Speed Gust Speed Precip Events Conditions
12:53 AM 71.1 °F - 62.1 °F 73% 30.14 in 10.0 mi SSE 4.6 mph - N/A   Clear
1:53 AM 71.1 °F - 63.0 °F 75% 30.13 in 10.0 mi SSE 3.5 mph - N/A   Clear
2:53 AM 68.0 °F - 62.1 °F 81% 30.12 in 10.0 mi Calm Calm - N/A   Clear
3:53 AM 68.0 °F - 63.0 °F 84% 30.12 in 10.0 mi Calm Calm - N/A   Clear
4:53 AM 66.0 °F - 62.1 °F 87% 30.12 in 9.0 mi NNE 3.5 mph - N/A   Clear
5:53 AM 64.9 °F - 62.1 °F 90% 30.13 in 9.0 mi Calm Calm - N/A   Clear
6:53 AM 64.0 °F - 62.1 °F 93% 30.16 in 8.0 mi Calm Calm - N/A   Clear
7:53 AM 69.1 °F - 63.0 °F 81% 30.18 in 10.0 mi East 3.5 mph - N/A   Clear
8:53 AM 72.0 °F - 64.0 °F 76% 30.19 in 10.0 mi Calm Calm - N/A   Partly Cloudy
10:53 AM 80.1 °F 81.9 °F 64.9 °F 60% 30.19 in 10.0 mi Calm Calm - N/A   Clear
11:53 AM 81.0 °F 82.7 °F 64.9 °F 58% 30.20 in 10.0 mi SE 9.2 mph - N/A   Scattered Clouds
12:53 PM 82.0 °F 83.4 °F 64.0 °F 54% 30.19 in 10.0 mi Variable 6.9 mph - N/A   Mostly Cloudy
1:53 PM 82.9 °F 84.4 °F 64.0 °F 53% 30.18 in 10.0 mi Calm Calm - N/A   Mostly Cloudy
2:53 PM 84.9 °F 85.4 °F 62.1 °F 46% 30.17 in 10.0 mi SSW 6.9 mph - N/A   Scattered Clouds
3:53 PM 84.9 °F 85.0 °F 61.0 °F 44% 30.14 in 10.0 mi SW 4.6 mph - N/A   Partly Cloudy
4:53 PM 86.0 °F 86.3 °F 62.1 °F 44% 30.12 in 10.0 mi West 5.8 mph - N/A   Mostly Cloudy
5:53 PM 86.0 °F 86.3 °F 62.1 °F 44% 30.11 in 10.0 mi SSE 8.1 mph - N/A   Mostly Cloudy
6:53 PM 82.9 °F 84.0 °F 63.0 °F 51% 30.11 in 10.0 mi South 3.5 mph - N/A   Clear
7:53 PM 81.0 °F 82.5 °F 64.0 °F 56% 30.11 in 10.0 mi South 3.5 mph - N/A   Clear
8:53 PM 78.1 °F - 64.0 °F 62% 30.12 in 10.0 mi SW 5.8 mph - N/A   Partly Cloudy
9:53 PM 77.0 °F - 64.0 °F 64% 30.12 in 10.0 mi Calm Calm - N/A   Clear
11:53 PM 73.9 °F - 64.9 °F 73% 30.12 in 10.0 mi North 3.5 mph - N/A   Clear